Buffalo, NY

9:15 PM EDT on July 27, 2017 (GMT -0400)
Buffalo Niagara International

Weather History for KBUF - February, 2014

Change the Weather History Date:

Wednesday, February 12, 2014

  Actual Average Record
Temperature  
Mean Temperature 12 °F 26 °F  
Max Temperature 26 °F 33 °F 63 °F (1999)
Min Temperature -3 °F 19 °F -10 °F (1979)
Degree Days  
Heating Degree Days 53 39  
Month to date heating degree days 583 479  
Since 1 July heating degree days 4430 4138  
Cooling Degree Days 0 0  
Month to date cooling degree days 0 0  
Year to date cooling degree days 0 0  
Moisture  
Dew Point -1 °F    
Average Humidity 58    
Maximum Humidity 79    
Minimum Humidity 36    
Precipitation  
Precipitation 0.00 in 0.08 in 1.41 in (1910)
Month to date precipitation 1.38 1.05  
Year to date precipitation 4.54 4.23  
Snow  
Snow 0.00 in 0.60 in 14.10 in (1910)
Month to date snowfall 13.8 7.9  
Since 1 July snowfall 94.7 69.4  
Snow Depth 9.00 in    
Sea Level Pressure  
Sea Level Pressure 30.36 in    
Wind  
Wind Speed 5 mph (SE)    
Max Wind Speed 14 mph    
Max Gust Speed 17 mph    
Visibility 10 miles    
Events      
T = Trace of Precipitation, MM = Missing Value Source: NWS Daily Summary

Daily Weather History Graph

Daily Weather History Graph

Search for Another Location

Airport or City:

Trip Planner

Search our weather history database for the weather conditions in past years. The results will help you decide how hot, cold, wet, or windy it might be!

Date:

Astronomy

Feb. 12, 2014 Rise Set
Actual Time 7:16 AM EST 5:42 PM EST
Civil Twilight 6:47 AM EST 6:11 PM EST
Nautical Twilight 6:13 AM EST 6:45 PM EST
Astronomical Twilight 5:41 AM EST 7:17 PM EST
Moon 3:53 PM EST (2/12) 5:33 AM EST (2/12)
Length of Visible Light 11h 24m
Length of Day
10h 25m
Waxing Gibbous, 95% of the Moon is Illuminated
Feb 12
Waxing Gibbous
Feb 14
Full
Feb 22
Last Quarter
Mar 1
New
Mar 8
First Quarter

Hourly Weather History & Observations

Time (EST) Temp. Windchill Dew Point Humidity Pressure Visibility Wind Dir Wind Speed Gust Speed Precip Events Conditions
12:54 AM -0.9 °F - -5.1 °F 83% 30.53 in 10.0 mi Calm Calm - N/A   Clear
1:54 AM -0.9 °F -11.0 °F -6.0 °F 79% 30.52 in 10.0 mi SE 4.6 mph - N/A   Clear
2:54 AM -2.0 °F -12.2 °F -8.0 °F 76% 30.52 in 10.0 mi SSE 4.6 mph - N/A   Clear
3:54 AM -0.9 °F -11.0 °F -7.1 °F 75% 30.52 in 10.0 mi SSE 4.6 mph - N/A   Clear
4:54 AM -2.0 °F -15.4 °F -7.1 °F 79% 30.51 in 10.0 mi SE 6.9 mph - N/A   Clear
5:54 AM -2.9 °F -15.0 °F -7.6 °F 80% 30.51 in 10.0 mi ESE 5.8 mph - N/A   Clear
6:54 AM -0.9 °F -17.4 °F -7.1 °F 75% 30.49 in 10.0 mi SE 10.4 mph - N/A   Partly Cloudy
7:54 AM -0.9 °F -12.7 °F -6.0 °F 79% 30.51 in 10.0 mi South 5.8 mph - N/A   Partly Cloudy
8:54 AM 3.0 °F -6.4 °F -2.9 °F 76% 30.48 in 10.0 mi SSE 4.6 mph - N/A   Partly Cloudy
9:54 AM 9.0 °F 2.4 °F 1.0 °F 70% 30.45 in 10.0 mi SSE 3.5 mph - N/A   Partly Cloudy
10:54 AM 14.0 °F 8.2 °F 1.0 °F 56% 30.45 in 10.0 mi South 3.5 mph - N/A   Partly Cloudy
11:54 AM 17.1 °F - 1.9 °F 52% 30.41 in 10.0 mi Calm Calm - N/A   Partly Cloudy
12:54 PM 19.0 °F - 1.9 °F 47% 30.38 in 10.0 mi Calm Calm - N/A   Partly Cloudy
1:54 PM 24.1 °F - 1.0 °F 37% 30.31 in 10.0 mi Calm Calm - N/A   Partly Cloudy
2:54 PM 25.0 °F - 5.0 °F 43% 30.27 in 10.0 mi Calm Calm - N/A   Partly Cloudy
3:54 PM 26.1 °F 21.9 °F 3.9 °F 39% 30.24 in 10.0 mi NE 3.5 mph - N/A   Scattered Clouds
4:54 PM 24.8 °F 17.9 °F 3.2 °F 40% 30.16 in 10.0 mi NNE 5.8 mph - N/A   Partly Cloudy
5:54 PM 21.0 °F 12.4 °F 3.0 °F 46% 30.20 in 10.0 mi NNE 6.9 mph - N/A   Scattered Clouds
6:54 PM 18.0 °F 9.8 °F 3.0 °F 52% 30.20 in 10.0 mi NNE 5.8 mph - N/A   Partly Cloudy
7:54 PM 18.0 °F 12.7 °F 3.0 °F 52% 30.20 in 10.0 mi SE 3.5 mph - N/A   Scattered Clouds
8:54 PM 17.1 °F 10.0 °F 5.0 °F 59% 30.21 in 10.0 mi South 4.6 mph - N/A   Scattered Clouds
9:54 PM 16.0 °F 5.3 °F 3.9 °F 59% 30.14 in 10.0 mi South 8.1 mph - N/A   Mostly Cloudy
10:54 PM 18.0 °F 6.1 °F 1.9 °F 50% 30.18 in 10.0 mi SSW 10.4 mph - N/A   Overcast
11:54 PM 17.1 °F 8.7 °F 1.0 °F 50% 29.91 in 10.0 mi SSW 5.8 mph - N/A   Mostly Cloudy